This demonstration page uses our WeatherBlox Daily Observations layout. Learn more.

Left ArrowRight Arrow

39.95238, -75.16362

Hourly Observations for August 18, 2022

Temp ( °F °C ) Dew Point ( °F °C ) Humidity (%) Winds ( mph kmh ) Pressure ( in mb ) Visibility ( mi km ) Precip ( " mm )
12:54 am 00:54 Clear 71 21.7 63 17.2 76 76 W 8 13 29.94 1014 10 16 0.00 0.00
1:54 am 01:54 Clear 71 21.7 60 15.6 68 68 WSW 7 11 29.93 1014 10 16 0.00 0.00
2:54 am 02:54 Clear 69 20.6 62 16.7 78 78 W 7 11 29.93 1014 10 16 0.00 0.00
3:54 am 03:54 Clear 68 20 62 16.7 81 81 W 6 9 29.93 1014 10 16 0.00 0.00
4:54 am 04:54 Clear 68 20 62 16.7 81 81 W 3 6 29.93 1014 10 16 0.00 0.00
5:54 am 05:54 Mostly Clear 67 19.4 61 16.1 81 81 Calm 29.94 1014 10 16 0.00 0.00
6:54 am 06:54 Mostly Sunny 67 19.4 61 16.1 81 81 NNW 6 9 29.96 1014 10 16 0.00 0.00
7:54 am 07:54 Mostly Sunny 70 21.1 60 15.6 71 71 NW 5 7 29.96 1015 10 16 0.00 0.00
8:54 am 08:54 Mostly Sunny 74 23.3 58 14.4 57 57 N 7 11 29.96 1015 10 16 0.00 0.00
9:54 am 09:54 Mostly Sunny 77 25 58 14.4 52 52 N 3 6 29.95 1014 10 16 0.00 0.00
10:54 am 10:54 Mostly Sunny 79 26.1 57 13.9 47 47 W 3 6 29.95 1014 10 16 0.00 0.00
11:54 am 11:54 Mostly Sunny 81 27.2 56 13.3 42 42 VRB 6 9 29.93 1014 10 16 0.00 0.00
12:54 pm 12:54 Mostly Sunny 83 28.3 57 13.9 41 41 WSW 10 17 29.93 1014 10 16 0.00 0.00
1:54 pm 13:54 Partly Cloudy 85 29.4 56 13.3 37 37 SW 13 20 29.92 1013 10 16 0.00 0.00
2:54 pm 14:54 Partly Cloudy 87 30.6 56 13.3 35 35 SW 15 24 29.91 1013 10 16 0.00 0.00
3:54 pm 15:54 Partly Cloudy 87 30.6 55 12.8 34 34 WSW 12 19 29.91 1013 10 16 0.00 0.00
4:54 pm 16:54 Partly Cloudy 86 30 55 12.8 35 35 W 14 22 29.91 1013 10 16 0.00 0.00
5:54 pm 17:54 Partly Cloudy 85 29.4 54 12.2 35 35 W 10 17 29.92 1013 10 16 0.00 0.00
6:54 pm 18:54 Mostly Sunny 85 29.4 55 12.8 36 36 WSW 13 20 29.92 1013 10 16 0.00 0.00
7:54 pm 19:54 Mostly Clear 83 28.3 57 13.9 41 41 WSW 10 17 29.93 1014 10 16 0.00 0.00
8:54 pm 20:54 Mostly Clear 81 27.2 56 13.3 42 42 WSW 9 15 29.95 1014 10 16 0.00 0.00
9:54 pm 21:54 Mostly Clear 78 25.6 59 15 52 52 SSW 6 9 29.97 1015 10 16 0.00 0.00
10:54 pm 22:54 Mostly Clear 76 24.4 62 16.7 62 62 SSW 5 7 29.98 1015 10 16 0.00 0.00
11:54 pm 23:54 Clear 76 24.4 63 17.2 64 64 WSW 7 11 29.99 1016 10 16 0.00 0.00

Powered by AerisWeather